YO8KGT-13 Weather Reports


time (UTC)temp
F
wind
direction
speed
knots
gust
knots
rain 1hr
in
rain 24hr
in
rain mn
in
humidity
%
barometer
mb
20260509160717 57 45 0.0 0.0 0.00 0.00 0.00 86 947.0
20260509160134 58 45 0.0 0.0 0.00 0.00 0.00 86 947.0
20260509155633 58 45 0.0 0.0 0.00 0.00 0.00 86 947.0
20260509155135 58 45 0.0 0.0 0.00 0.00 0.00 86 947.0
20260509154638 58 45 0.0 0.0 0.00 0.00 0.00 86 947.0
20260509154138 58 45 0.0 0.0 0.00 0.00 0.00 86 947.0
20260509153633 59 45 0.0 0.0 0.00 0.00 0.00 86 947.0
20260509153134 59 45 0.0 0.0 0.00 0.00 0.00 86 947.0
20260509152647 59 45 0.0 0.0 0.00 0.00 0.00 87 947.0
20260509152214 59 45 0.0 0.0 0.00 0.00 0.00 86 947.0
20260509151634 59 45 0.0 0.0 0.00 0.00 0.00 86 947.0
20260509151133 59 45 0.0 0.0 0.00 0.00 0.00 86 947.0
20260509150634 59 45 0.0 0.0 0.00 0.00 0.00 86 947.0
20260509150136 59 45 0.0 0.0 0.00 0.00 0.00 86 947.0
20260509145634 59 45 0.0 0.0 0.00 0.00 0.00 86 947.0
20260509045418 56 45 0.0 1.7 0.00 0.00 0.00 88 948.0
20260509044418 56 45 1.7 2.6 0.00 0.00 0.00 88 948.0
20260509043918 56 45 0.0 2.6 0.00 0.00 0.00 88 948.0
20260509043417 56 45 2.6 2.6 0.00 0.00 0.00 88 948.0
20260509042926 56 45 0.0 1.7 0.00 0.00 0.00 88 948.0
20260509041918 55 45 0.0 0.9 0.00 0.00 0.00 88 947.0
20260509041432 55 45 0.0 1.7 0.00 0.00 0.00 88 948.0
20260509035917 55 45 0.0 0.0 0.00 0.00 0.00 88 948.0
20260509030922 54 45 0.0 0.0 0.00 0.00 0.00 88 947.0
20260509025918 54 45 0.0 1.7 0.00 0.00 0.00 88 947.0
20260509025420 54 0 0.0 1.7 0.00 0.00 0.00 88 947.0
20260509024927 54 45 0.9 0.9 0.00 0.00 0.00 88 947.0
20260509021420 54 45 0.0 0.0 0.00 0.00 0.00 88 947.0
20260509020944 54 45 0.0 0.0 0.00 0.00 0.00 88 947.0
20260509020418 54 45 0.0 0.0 0.00 0.00 0.00 88 947.0
20260509015917 54 45 0.0 0.0 0.00 0.00 0.00 88 947.0
20260509015417 54 45 0.0 0.0 0.00 0.00 0.00 88 947.0
20260509014421 54 45 0.0 0.0 0.00 0.00 0.00 87 947.0
20260509013918 54 45 0.0 0.0 0.00 0.00 0.00 87 947.0
20260509013426 55 45 0.0 0.0 0.00 0.00 0.00 87 947.0
20260509012917 55 45 0.0 0.0 0.00 0.00 0.00 87 947.0
20260509012423 55 45 0.0 0.0 0.00 0.00 0.00 87 947.0
20260509011918 55 45 0.0 0.0 0.00 0.00 0.00 87 947.0
20260509011421 55 45 0.0 0.0 0.00 0.00 0.00 87 947.0
20260509010918 55 45 0.0 0.0 0.00 0.00 0.00 87 947.0
20260509010427 55 45 0.0 0.0 0.00 0.00 0.00 87 947.0
20260509005917 55 45 0.0 0.0 0.00 0.00 0.00 87 947.0
20260509005418 54 45 0.0 0.0 0.00 0.00 0.00 87 947.0
20260509004932 55 45 0.0 0.0 0.00 0.00 0.00 87 947.0
20260509003418 54 45 0.0 0.0 0.00 0.00 0.00 87 947.0
20260509002438 55 45 0.0 0.0 0.00 0.00 0.00 87 947.0
20260509001919 55 45 0.0 0.0 0.00 0.00 0.00 87 947.0
20260509001423 55 45 0.0 0.0 0.00 0.00 0.00 87 947.0
20260508235421 55 45 0.0 0.0 0.00 0.00 0.00 87 947.0
20260508234421 55 45 0.0 0.0 0.00 0.00 0.00 87 947.0
20260508233923 55 45 0.0 0.0 0.00 0.00 0.00 87 947.0
20260508233420 56 45 0.0 0.0 0.00 0.00 0.00 87 947.0
20260508232924 55 0 0.0 0.0 0.00 0.00 0.00 87 947.0
20260508231919 55 45 0.0 0.0 0.00 0.00 0.00 87 947.0
20260508230919 55 45 0.0 0.0 0.00 0.00 0.00 87 947.0
20260508230432 55 45 0.0 0.0 0.00 0.00 0.00 87 947.0
20260508225919 55 45 0.0 0.0 0.00 0.00 0.00 86 947.0
20260508225423 56 45 0.0 0.0 0.00 0.00 0.00 86 947.0
20260508224438 56 45 0.0 0.0 0.00 0.00 0.00 86 947.0
20260508223921 56 45 0.0 0.0 0.00 0.00 0.00 86 947.0
20260508223419 56 45 0.0 0.0 0.00 0.00 0.00 86 947.0
20260508222420 56 45 0.0 0.0 0.00 0.00 0.00 86 947.0
20260508220920 56 45 0.0 0.0 0.00 0.00 0.00 86 947.0
20260508215924 56 45 0.0 0.0 0.00 0.00 0.00 86 947.0
20260508215420 56 45 0.0 0.0 0.00 0.00 0.00 86 947.0
20260508214926 56 45 0.0 0.0 0.00 0.00 0.00 86 947.0
20260508213929 56 45 0.0 0.0 0.00 0.00 0.00 85 947.0
20260508213422 56 45 0.0 0.0 0.00 0.00 0.00 85 947.0
20260508212423 56 45 0.0 1.7 0.00 0.00 0.00 85 947.0
20260508211934 56 45 0.0 1.7 0.00 0.00 0.00 85 947.0
20260508211422 56 45 1.7 1.7 0.00 0.00 0.00 85 947.0
20260508210921 56 45 0.0 0.0 0.00 0.00 0.00 85 947.0
20260508210442 56 45 0.0 0.0 0.00 0.00 0.00 85 947.0
20260508205421 56 45 0.0 1.7 0.00 0.00 0.00 85 948.0
20260508204921 56 45 0.0 1.7 0.00 0.00 0.00 85 947.0
20260508203923 56 45 0.0 0.0 0.00 0.00 0.00 85 947.0
20260508203423 56 45 0.0 0.0 0.00 0.00 0.00 85 948.0
20260508202921 56 45 0.0 0.0 0.00 0.00 0.00 85 947.0
20260508202424 56 45 0.0 0.0 0.00 0.00 0.00 85 947.0
20260508201926 56 45 0.0 0.0 0.00 0.00 0.00 85 947.0
20260508201427 56 45 0.0 0.0 0.00 0.00 0.00 85 947.0
20260508200923 56 45 0.0 0.0 0.00 0.00 0.00 85 947.0
20260508200422 57 45 0.0 0.0 0.00 0.00 0.00 84 947.0
20260508195936 57 45 0.0 0.0 0.00 0.00 0.00 85 947.0
20260508195502 57 45 0.0 0.0 0.00 0.00 0.00 84 947.0
20260508193422 57 45 0.0 1.7 0.00 0.00 0.00 84 947.0
20260508191943 58 45 0.0 0.0 0.00 0.00 0.00 84 947.0
20260508191424 58 45 0.0 0.0 0.00 0.00 0.00 84 947.0
20260508190952 58 45 0.0 0.0 0.00 0.00 0.00 84 947.0
20260508190423 57 45 0.0 0.0 0.00 0.00 0.00 84 947.0
20260508185923 58 45 0.0 0.0 0.00 0.00 0.00 84 947.0
20260508185429 57 45 0.0 0.0 0.00 0.00 0.00 84 947.0
20260508184927 57 45 0.0 0.0 0.00 0.00 0.00 84 947.0
20260508184423 57 45 0.0 0.0 0.00 0.00 0.00 83 947.0
20260508182924 58 45 0.0 1.7 0.00 0.00 0.00 83 947.0
20260508182433 58 45 0.0 1.7 0.00 0.00 0.00 83 946.0
20260508181438 58 45 0.0 0.0 0.00 0.00 0.00 83 946.0
20260508180924 59 45 0.0 2.6 0.00 0.00 0.00 83 946.0
20260508180425 59 45 0.0 3.5 0.00 0.00 0.00 83 946.0
20260508175443 60 45 0.0 3.5 0.00 0.00 0.00 82 946.0
20260508174924 60 45 1.7 1.7 0.00 0.00 0.00 82 946.0
20260508174425 60 45 0.0 0.0 0.00 0.00 0.00 82 946.0
20260508173949 60 45 0.0 0.0 0.00 0.00 0.00 82 946.0
20260508172424 61 45 0.0 0.9 0.00 0.00 0.00 81 946.0
20260508171928 61 45 0.0 0.9 0.00 0.00 0.00 81 946.0
20260508170427 62 45 0.0 0.0 0.00 0.00 0.00 81 946.0
20260508165433 62 45 0.0 0.0 0.00 0.00 0.00 80 946.0
20260508164934 62 45 0.0 0.0 0.00 0.00 0.00 80 946.0
20260508163926 63 45 0.0 0.0 0.00 0.00 0.00 80 946.0
20260508163438 63 45 0.0 0.0 0.00 0.00 0.00 80 946.0
20260508161926 63 45 0.0 0.0 0.00 0.00 0.00 80 945.0